Wind_Speed
4 4 3 2 0 1 1 2 3 4 5 6 7 8 9 9 9 9 9 9 9 8 8 8 8 8 7 6 5 5 5 5 4 5 4 5 5 4 4 3 2 2 2 1 2 3 3 4 4
5 5 4 2 1 1 3 3 3 3 4 5 5 7 8 8 9 8 8 9 8 8 8 7 8 7 7 6 5 5 5 4 4 4 4 4 4 4 3 3 2 2 2 2 2 3 3 4 4
7 6 5 3 2 3 4 3 3 3 3 4 5 6 7 8 8 8 8 8 8 8 7 7 7 7 7 6 5 5 5 4 4 4 4 4 4 3 3 2 2 2 3 3 3 3 3 4 4
8 7 6 5 5 6 5 4 4 4 4 4 5 5 6 7 7 8 8 8 8 7 7 6 6 6 6 5 5 4 4 4 4 4 4 4 4 3 3 2 2 2 3 3 3 3 3 3 3
9 8 7 7 7 7 6 6 5 4 4 4 4 5 5 6 6 7 7 7 7 7 7 6 5 5 5 5 4 4 4 4 3 3 3 4 4 3 3 2 1 2 2 3 3 3 3 3 3
10 9 8 9 9 8 7 6 5 4 4 4 4 4 4 6 6 6 6 7 7 7 6 6 5 5 5 4 3 3 4 4 3 3 3 3 3 3 3 2 1 1 1 2 2 3 3 2 2
12 11 11 11 11 10 9 8 6 5 5 4 4 3 4 5 6 6 6 6 6 6 5 5 5 5 5 4 3 3 3 3 3 2 2 2 2 2 2 2 1 1 1 2 3 2 2 2 2
12 12 12 12 12 12 10 9 7 6 5 5 4 3 3 5 5 6 6 6 6 6 5 6 6 5 5 5 4 3 3 3 3 2 1 1 1 1 1 2 2 2 2 2 3 3 2 2 3
13 13 13 13 13 13 11 10 8 7 6 6 5 4 4 4 4 5 6 6 6 6 6 6 6 6 5 4 4 3 3 3 2 2 2 1 0 1 1 1 2 2 2 3 3 3 4 4 4
14 14 16 15 14 14 12 10 9 8 7 7 6 5 5 5 5 5 6 6 6 6 6 5 5 5 5 5 4 4 4 3 2 2 1 1 1 1 1 2 3 3 3 4 3 4 5 4 4
16 16 17 16 15 14 13 11 10 9 8 8 7 6 7 6 5 5 6 6 6 6 6 6 6 6 5 5 4 4 4 3 2 2 1 1 1 2 2 3 3 4 4 4 4 3 3 3 3
17 17 17 17 16 15 13 12 11 10 9 9 9 8 8 8 7 6 6 6 7 6 6 6 6 6 5 5 5 4 4 4 3 3 2 2 2 2 3 4 4 4 4 4 4 4 4 4 4
18 18 17 17 17 15 14 14 12 11 10 11 10 10 9 9 8 7 7 7 7 7 6 6 6 6 6 5 5 5 4 4 4 4 3 3 3 3 3 4 5 5 5 5 5 5 5 5 5
18 18 17 18 18 17 17 16 15 13 12 12 11 11 10 10 9 8 8 7 7 7 7 7 6 6 7 7 6 6 5 5 5 6 5 5 5 5 5 5 6 6 6 6 6 5 5 5 5
19 19 19 19 19 19 18 17 16 15 14 13 12 12 12 11 11 10 9 8 8 8 8 7 7 8 8 8 7 6 6 6 6 6 6 7 7 7 7 7 7 7 8 7 7 6 6 6 6
19 20 20 20 20 20 18 17 17 16 15 14 13 13 13 12 11 11 10 9 9 9 9 9 9 9 9 9 8 7 7 7 7 7 7 7 7 7 7 7 7 8 8 8 7 7 7 7 7
19 19 19 21 21 21 19 18 18 17 17 15 14 13 13 13 12 11 11 10 10 10 10 10 10 10 10 10 10 9 9 8 8 8 9 8 8 8 8 8 8 9 9 9 9 9 8 8 8
18 18 19 20 21 20 20 19 19 18 17 16 15 14 14 14 13 12 12 11 11 11 11 11 11 11 11 12 12 11 9 9 9 9 9 10 10 9 9 9 9 9 9 10 10 10 9 9 8
19 19 19 20 20 19 20 20 19 18 18 16 16 15 15 15 14 13 13 12 12 12 12 12 12 12 13 12 11 10 10 10 10 9 9 10 10 9 9 10 10 10 11 11 11 11 10 9 10
19 19 19 21 21 20 20 20 20 19 18 17 17 17 17 16 15 14 13 13 14 14 14 13 12 12 12 12 11 11 11 11 10 10 9 9 10 10 10 11 11 11 11 11 12 12 11 11 11
20 20 21 22 22 22 22 20 20 20 19 18 18 18 18 17 16 16 15 15 16 15 14 13 13 12 12 12 12 11 11 11 12 12 10 10 10 11 12 11 11 11 11 11 11 12 12 12 12
21 21 21 22 22 22 23 20 21 21 20 19 19 19 19 19 18 18 18 17 16 16 15 14 12 12 12 12 12 12 12 11 12 13 11 10 10 11 12 11 10 10 10 11 11 11 11 12 12
21 22 22 22 23 23 23 22 21 22 21 20 19 19 18 19 19 18 18 17 17 16 16 15 14 13 12 12 12 13 13 12 12 12 11 10 10 10 10 10 10 10 10 11 11 11 11 11 11
21 21 22 22 23 24 24 24 22 23 21 20 20 20 20 20 19 19 18 18 18 18 17 15 15 14 13 13 13 13 12 12 12 11 11 10 10 9 9 9 10 10 10 10 10 11 11 10 10
21 20 20 21 22 23 24 25 24 23 22 21 21 20 20 20 20 19 18 17 17 17 16 15 15 15 14 14 14 14 13 12 12 12 12 11 11 11 11 10 10 10 11 11 11 11 11 11 11
21 20 21 21 20 21 23 24 23 21 22 21 21 21 20 20 19 19 19 18 17 17 16 16 15 15 15 14 14 14 13 13 12 12 12 12 12 12 12 12 12 12 12 13 12 12 12 13 13
21 21 21 21 20 21 22 24 23 21 21 21 21 21 21 20 20 20 19 19 18 17 17 16 16 15 15 15 15 14 13 13 13 13 13 13 13 13 13 14 13 13 13 12 13 14 14 14 14
22 21 22 22 21 21 22 23 22 21 21 21 21 22 22 22 21 21 20 20 19 18 18 18 17 17 17 17 16 15 15 15 14 15 14 14 15 15 15 15 14 14 14 14 14 15 16 16 16
23 23 23 22 23 21 19 21 22 21 21 21 22 22 23 23 23 22 22 21 20 19 19 19 19 19 19 18 17 17 16 16 16 16 16 16 16 16 16 17 16 15 15 16 16 17 17 17 16
25 24 24 24 24 23 21 21 22 22 22 22 22 22 22 23 23 23 23 22 21 20 20 19 19 19 19 19 18 17 18 18 17 16 17 17 17 17 17 18 18 17 17 17 17 18 18 18 18
Wind_Direction
230 233 238 236 34 46 314 328 347 4 13 18 22 26 29 29 30 31 33 34 33 34 36 38 37 37 36 40 50 57 61 65 75 82 89 90 93 97 98 98 95 93 99 141 164 167 162 151 153
232 236 236 235 125 221 273 292 310 336 355 8 14 21 23 25 27 29 32 32 30 29 31 33 35 34 35 41 52 58 57 63 73 83 92 95 100 105 111 100 95 89 97 112 137 137 141 149 151
233 235 235 234 223 218 251 276 301 325 344 356 6 11 16 20 26 26 27 28 27 25 27 31 32 31 32 38 44 50 53 60 70 82 90 100 105 115 126 114 101 94 100 100 115 116 120 131 140
235 237 235 233 241 247 254 271 287 306 322 341 351 356 5 14 19 21 21 23 23 20 22 26 28 26 26 30 38 47 51 55 68 79 85 96 102 111 124 121 108 100 96 93 103 115 117 124 141
233 235 238 242 249 255 260 269 285 297 310 328 339 343 354 8 13 16 18 18 15 13 15 16 18 14 15 20 34 46 49 52 67 80 86 94 100 108 119 125 124 106 101 98 108 126 128 129 139
231 232 236 241 250 254 256 262 279 293 305 314 323 337 354 6 12 11 9 9 6 7 9 11 10 5 3 8 28 38 43 46 58 76 86 92 96 106 113 109 128 126 135 135 132 135 143 146 158
230 230 230 237 247 250 252 258 269 285 297 304 308 323 356 3 2 359 356 354 354 358 3 6 6 3 1 3 12 23 29 40 47 60 83 93 94 109 127 141 176 188 172 161 156 154 168 166 164
233 234 233 237 245 248 251 255 263 274 288 297 295 308 336 348 350 352 352 351 349 350 356 1 359 356 355 354 0 12 18 29 33 35 47 57 81 128 155 171 191 204 211 187 180 181 197 199 186
234 232 233 238 243 249 249 253 259 269 280 286 285 292 314 325 336 342 346 346 347 347 347 352 352 350 348 348 352 1 6 13 17 17 16 22 217 198 222 224 223 225 226 216 212 210 209 203 208
234 231 233 237 242 248 252 254 256 265 275 274 276 284 301 310 320 329 333 337 340 340 340 341 340 340 341 343 342 344 347 350 356 1 350 314 249 218 227 229 226 230 230 225 218 219 220 214 220
235 233 237 239 241 247 253 254 254 259 267 269 274 279 292 298 307 318 323 324 330 332 333 332 331 332 333 331 330 327 328 329 327 330 308 275 245 227 232 234 236 232 225 225 231 226 235 231 235
235 237 239 241 244 248 252 252 251 253 262 271 276 279 287 293 298 304 313 314 316 320 324 326 330 331 326 325 326 319 313 313 309 309 292 276 260 250 237 231 236 230 226 235 238 240 236 231 227
237 238 238 242 245 247 250 252 253 254 260 267 272 272 278 284 285 288 297 301 304 307 313 318 322 323 320 316 319 321 317 306 296 292 283 275 272 272 263 243 238 236 237 241 250 256 251 244 235
238 239 239 241 244 247 249 251 255 255 257 263 264 265 269 272 276 282 288 290 293 296 303 310 316 318 317 313 309 311 310 311 297 286 281 272 265 263 265 259 246 242 243 248 249 254 252 245 247
238 241 242 243 245 249 249 252 254 253 254 258 260 261 262 264 270 275 276 278 284 290 297 307 311 313 312 310 305 303 301 302 296 286 282 278 269 263 264 260 250 246 243 245 248 252 256 253 257
240 242 242 245 247 249 247 250 252 251 253 256 258 258 257 259 265 269 270 272 278 284 291 298 300 302 306 308 307 302 298 297 289 282 279 280 276 267 263 261 256 252 249 247 251 255 258 259 257
244 243 243 246 246 247 247 246 251 250 251 255 256 254 252 255 256 261 265 267 272 278 284 290 294 298 304 305 304 302 295 293 287 283 281 281 280 273 265 260 259 253 251 250 253 255 257 257 259
242 244 245 245 246 245 246 246 250 249 252 255 253 251 249 253 255 257 260 263 268 274 280 284 288 292 299 305 302 298 294 291 288 287 284 280 275 268 262 258 258 256 252 251 253 255 255 258 260
240 242 244 245 247 246 247 247 249 249 250 251 251 249 249 253 255 257 258 260 267 273 276 280 284 287 291 296 298 292 291 292 288 285 281 280 272 261 259 258 257 255 255 255 256 255 255 258 260
243 243 244 245 246 246 248 248 247 247 248 248 247 248 250 253 254 257 258 262 267 270 273 278 283 286 287 287 291 290 289 290 285 283 282 278 271 260 255 258 255 253 254 254 255 255 255 255 257
243 242 242 243 246 247 247 248 247 247 248 245 245 247 249 252 254 258 260 264 267 267 270 277 280 284 281 282 286 286 287 288 285 283 284 278 270 264 258 255 253 256 257 256 255 256 256 256 257
243 241 240 242 244 246 247 246 250 248 245 242 244 248 250 252 254 256 260 261 263 264 269 275 277 282 282 282 284 284 285 287 283 282 280 278 273 266 260 256 254 257 255 255 256 255 257 257 257
241 242 241 243 244 245 248 246 247 248 243 243 245 248 251 251 253 255 258 257 261 263 266 269 274 279 282 285 287 285 281 283 282 280 276 274 277 276 271 265 261 260 258 258 257 256 256 259 262
240 242 242 243 245 247 247 248 247 248 246 245 246 248 251 253 253 254 256 256 260 263 265 267 271 275 278 284 288 289 286 283 279 279 276 276 278 279 279 276 265 264 264 264 259 259 261 265 269
240 240 243 245 247 250 248 247 248 247 247 247 246 248 249 251 251 254 255 257 259 262 264 266 271 272 275 279 284 286 281 280 276 276 274 274 274 274 275 277 270 267 265 267 265 261 264 268 270
240 238 238 242 245 248 248 248 250 249 248 247 247 248 250 251 251 251 251 254 258 261 265 267 270 272 273 276 279 282 281 278 276 275 273 272 272 273 273 271 270 267 267 267 267 266 269 271 274
239 239 239 242 246 248 248 250 252 251 248 247 247 247 248 250 251 250 250 254 258 260 262 264 269 271 273 274 274 276 279 279 275 275 276 275 272 271 271 271 270 270 268 266 267 269 270 270 273
239 239 238 239 242 245 250 251 252 250 248 247 247 247 247 249 250 250 251 254 256 259 261 262 267 270 272 274 272 271 274 275 275 274 273 274 272 271 270 270 271 271 268 267 269 272 275 275 275
241 240 240 241 242 244 250 253 250 250 249 248 248 248 248 249 251 252 252 251 253 258 260 261 265 268 270 271 270 269 270 272 273 273 272 272 271 270 269 270 270 270 269 269 270 273 275 275 275
241 241 242 242 244 245 247 254 253 251 248 247 247 248 248 249 251 252 251 251 253 256 259 260 262 266 268 268 269 269 270 269 269 271 272 271 272 270 268 269 270 269 269 269 271 272 273 274 275
Height
5906 5907 5908 5909 5911 5912 5912 5911 5910 5909 5908 5907 5906 5904 5903 5902 5902 5902 5899 5896 5895 5894 5892 5891 5890 5889 5887 5886 5885 5884 5884 5883 5882 5882 5881 5881 5880 5880 5880 5879 5879 5879 5878 5877 5877 5878 5878 5878 5879
5906 5906 5908 5909 5911 5912 5911 5910 5909 5908 5908 5906 5905 5904 5903 5902 5901 5899 5897 5896 5895 5894 5893 5891 5890 5889 5888 5887 5886 5885 5884 5883 5882 5882 5881 5881 5880 5880 5880 5879 5879 5879 5878 5878 5877 5878 5878 5878 5879
5905 5905 5908 5909 5910 5911 5910 5909 5908 5908 5907 5906 5905 5904 5903 5902 5901 5899 5898 5897 5895 5894 5893 5892 5890 5889 5888 5887 5886 5885 5884 5883 5882 5882 5881 5881 5881 5880 5880 5879 5879 5879 5878 5878 5878 5878 5879 5879 5879
5904 5905 5907 5909 5909 5909 5908 5908 5907 5907 5906 5905 5905 5904 5903 5902 5901 5900 5898 5897 5895 5894 5893 5892 5891 5890 5888 5887 5886 5885 5884 5883 5883 5882 5882 5881 5881 5880 5880 5880 5879 5879 5879 5879 5879 5879 5879 5879 5880
5902 5905 5907 5907 5907 5907 5907 5907 5906 5906 5905 5905 5904 5903 5902 5902 5900 5899 5898 5897 5895 5894 5893 5892 5891 5890 5889 5887 5886 5885 5884 5884 5883 5882 5882 5881 5881 5881 5880 5880 5879 5879 5879 5879 5879 5879 5879 5879 5880
5902 5904 5906 5906 5906 5906 5906 5906 5906 5905 5905 5904 5904 5903 5902 5901 5900 5899 5898 5897 5895 5894 5893 5891 5890 5890 5889 5887 5886 5885 5885 5884 5883 5882 5882 5881 5881 5881 5880 5880 5880 5879 5879 5879 5879 5879 5879 5879 5879
5900 5902 5903 5904 5904 5904 5905 5905 5905 5904 5904 5904 5903 5902 5901 5901 5900 5899 5897 5896 5895 5894 5892 5891 5890 5889 5888 5887 5886 5885 5885 5884 5883 5882 5882 5881 5881 5880 5880 5880 5880 5879 5879 5879 5879 5879 5879 5879 5879
5897 5900 5901 5902 5902 5903 5903 5903 5903 5903 5903 5903 5903 5902 5901 5900 5899 5898 5897 5896 5895 5893 5892 5891 5890 5889 5888 5887 5886 5885 5884 5883 5883 5882 5881 5881 5881 5880 5880 5879 5879 5879 5879 5879 5879 5879 5879 5879 5879
5895 5899 5899 5900 5900 5901 5901 5901 5902 5902 5902 5901 5901 5901 5900 5899 5898 5897 5896 5895 5894 5893 5892 5891 5889 5888 5887 5887 5885 5884 5884 5883 5882 5881 5881 5880 5880 5879 5879 5879 5879 5879 5878 5878 5878 5878 5878 5878 5878
5893 5895 5896 5897 5898 5898 5899 5900 5900 5900 5900 5900 5900 5900 5899 5898 5897 5896 5896 5895 5894 5893 5892 5890 5889 5888 5887 5886 5885 5884 5883 5882 5881 5880 5880 5879 5879 5879 5878 5878 5878 5878 5878 5877 5877 5877 5877 5877 5877
5890 5892 5892 5893 5895 5896 5897 5897 5898 5898 5899 5898 5898 5898 5898 5897 5896 5896 5895 5894 5893 5892 5891 5890 5888 5887 5886 5885 5884 5883 5882 5881 5880 5879 5879 5878 5878 5878 5877 5877 5877 5877 5877 5877 5877 5876 5876 5876 5877
5887 5888 5889 5890 5892 5893 5894 5895 5896 5896 5897 5897 5897 5896 5896 5896 5895 5894 5894 5893 5892 5891 5890 5888 5887 5886 5885 5884 5883 5882 5881 5880 5879 5878 5878 5877 5877 5877 5876 5876 5876 5876 5876 5876 5876 5876 5875 5876 5876
5884 5885 5886 5887 5889 5890 5891 5892 5893 5894 5894 5894 5895 5895 5894 5894 5894 5893 5892 5892 5891 5890 5889 5887 5886 5885 5884 5883 5882 5881 5880 5879 5878 5878 5877 5877 5876 5876 5875 5875 5875 5875 5875 5874 5874 5875 5875 5875 5875
5880 5882 5883 5884 5885 5887 5888 5889 5891 5891 5892 5892 5892 5892 5892 5892 5892 5891 5891 5890 5889 5888 5887 5886 5885 5884 5883 5882 5881 5880 5879 5878 5877 5876 5876 5875 5875 5874 5874 5874 5874 5873 5873 5873 5873 5874 5874 5874 5874
5877 5878 5880 5881 5882 5883 5885 5887 5887 5888 5889 5890 5890 5890 5890 5890 5890 5889 5889 5888 5888 5887 5886 5885 5884 5883 5882 5881 5879 5878 5877 5877 5876 5875 5874 5873 5873 5873 5873 5872 5872 5872 5872 5872 5872 5872 5872 5873 5873
5873 5875 5876 5878 5878 5880 5883 5884 5884 5885 5886 5887 5887 5887 5888 5888 5887 5887 5887 5887 5886 5885 5884 5883 5882 5881 5880 5879 5878 5876 5875 5875 5874 5873 5872 5871 5871 5871 5871 5870 5870 5870 5870 5870 5871 5871 5871 5871 5871
5870 5871 5873 5874 5875 5876 5879 5880 5880 5881 5882 5883 5884 5884 5885 5885 5885 5885 5885 5884 5884 5883 5883 5882 5880 5879 5878 5877 5876 5875 5874 5873 5872 5871 5870 5869 5869 5869 5869 5869 5868 5868 5868 5869 5869 5869 5869 5869 5869
5867 5868 5868 5869 5870 5872 5874 5876 5877 5877 5878 5879 5880 5881 5881 5882 5882 5882 5882 5882 5882 5881 5880 5880 5878 5877 5876 5875 5873 5872 5871 5870 5869 5868 5868 5867 5867 5867 5866 5866 5866 5866 5866 5867 5867 5867 5867 5867 5867
5862 5863 5864 5865 5866 5868 5869 5871 5873 5874 5875 5875 5876 5877 5878 5878 5879 5879 5879 5879 5879 5878 5878 5877 5876 5874 5873 5872 5871 5870 5869 5868 5867 5866 5865 5865 5864 5864 5864 5864 5864 5864 5864 5864 5864 5865 5865 5865 5865
5857 5859 5860 5861 5861 5864 5865 5867 5868 5869 5870 5871 5872 5873 5874 5875 5875 5876 5876 5876 5876 5875 5874 5873 5872 5871 5870 5869 5868 5867 5866 5865 5864 5864 5863 5862 5862 5861 5861 5862 5862 5862 5862 5862 5862 5862 5862 5862 5862
5852 5854 5855 5856 5857 5859 5861 5863 5864 5865 5866 5867 5868 5869 5870 5871 5872 5872 5872 5872 5872 5872 5871 5870 5869 5868 5867 5866 5865 5864 5863 5862 5862 5861 5861 5860 5859 5859 5859 5859 5859 5859 5859 5859 5859 5860 5860 5860 5860
5848 5849 5850 5851 5853 5855 5857 5859 5859 5860 5862 5863 5864 5865 5866 5867 5868 5868 5868 5868 5868 5868 5867 5867 5866 5865 5864 5863 5862 5861 5860 5859 5859 5858 5858 5857 5856 5856 5856 5856 5856 5856 5856 5856 5857 5857 5857 5857 5857
5843 5844 5845 5847 5848 5850 5851 5854 5856 5855 5857 5859 5860 5861 5861 5862 5863 5864 5864 5864 5864 5864 5864 5863 5862 5861 5860 5859 5858 5857 5857 5856 5855 5855 5855 5855 5854 5853 5853 5853 5854 5854 5854 5854 5854 5854 5854 5854 5854
5837 5839 5840 5842 5843 5845 5847 5848 5850 5851 5852 5854 5855 5856 5857 5857 5858 5859 5859 5860 5860 5860 5859 5859 5858 5858 5857 5856 5855 5854 5853 5853 5852 5852 5852 5852 5852 5851 5851 5851 5851 5851 5851 5851 5851 5851 5851 5852 5851
5832 5834 5836 5837 5838 5840 5841 5842 5844 5845 5847 5848 5850 5851 5851 5852 5853 5854 5855 5855 5855 5855 5855 5855 5854 5853 5853 5852 5851 5851 5850 5849 5849 5849 5849 5849 5849 5849 5849 5849 5849 5849 5849 5849 5849 5849 5849 5849 5849
5827 5830 5833 5835 5836 5837 5835 5836 5839 5840 5841 5843 5844 5845 5846 5847 5848 5849 5850 5851 5851 5851 5851 5851 5850 5850 5849 5848 5848 5847 5847 5846 5846 5846 5846 5846 5846 5846 5846 5846 5846 5846 5846 5846 5846 5846 5846 5846 5846
5821 5823 5827 5829 5830 5831 5831 5832 5833 5834 5835 5837 5839 5840 5841 5842 5843 5844 5845 5846 5846 5846 5847 5847 5847 5846 5845 5845 5844 5844 5844 5843 5843 5843 5843 5843 5843 5843 5843 5843 5843 5843 5843 5843 5843 5843 5843 5842 5842
5816 5818 5820 5822 5824 5826 5827 5827 5829 5829 5830 5832 5833 5834 5836 5837 5838 5839 5840 5841 5842 5842 5842 5842 5842 5842 5841 5841 5840 5840 5840 5840 5840 5840 5840 5839 5840 5840 5840 5840 5839 5840 5839 5839 5839 5839 5839 5838 5838
5810 5812 5814 5817 5818 5821 5823 5825 5823 5824 5825 5827 5828 5829 5831 5832 5833 5834 5835 5836 5837 5837 5838 5838 5838 5837 5837 5837 5836 5836 5836 5836 5835 5836 5835 5835 5835 5835 5835 5835 5835 5835 5835 5835 5835 5835 5835 5834 5834
5804 5806 5808 5811 5812 5814 5817 5821 5817 5818 5819 5821 5823 5824 5825 5827 5828 5829 5830 5831 5832 5832 5833 5833 5833 5833 5833 5832 5832 5832 5831 5831 5831 5831 5831 5831 5831 5831 5831 5831 5831 5831 5830 5830 5830 5830 5830 5829 5829